Weather History for Youngstown, OH

Change the Weather History Date:

Tuesday, April 2, 2013

  Actual Average Record
Temperature  
Mean Temperature 30 °F 43 °F  
Max Temperature 38 °F 53 °F 87 °F (2010)
Min Temperature 21 °F 34 °F 20 °F (1961)
Degree Days  
Heating Degree Days 35 22  
Month to date heating degree days 63 44  
Since 1 July heating degree days 5479 5568  
Cooling Degree Days 0 0  
Month to date cooling degree days 0 0  
Year to date cooling degree days 0 1  
Moisture  
Dew Point 16 °F    
Average Humidity 55    
Maximum Humidity 81    
Minimum Humidity 29    
Precipitation  
Precipitation 0.02 in 0.12 in 1.45 in (2005)
Month to date precipitation 0.06 0.23  
Year to date precipitation 7.07 7.87  
Snow  
Snow 0.20 in 0.20 in - ()
Month to date snowfall 0.6 0.4  
Since 1 July snowfall 80.9 60.1  
Snow Depth 0.00 in    
Sea Level Pressure  
Sea Level Pressure 30.14 in    
Wind  
Wind Speed 9 mph (West)    
Max Wind Speed 22 mph    
Max Gust Speed 29 mph    
Visibility 8 miles    
Events Snow    
T = Trace of Precipitation, MM = Missing Value Source: NWS Daily Summary

Daily Weather History Graph

Daily Weather History Graph

Search for Another Location

Airport:

Trip Planner

Search our weather history database for the weather conditions in past years. The results will help you decide how hot, cold, wet, or windy it might be!

Date:

Astronomy

Apr. 02, 2013 Rise Set
Actual Time 7:03 AM EDT 7:49 PM EDT
Civil Twilight 6:35 AM EDT 8:17 PM EDT
Nautical Twilight 6:02 AM EDT 8:50 PM EDT
Astronomical Twilight 5:28 AM EDT 9:24 PM EDT
Moon 1:55 AM EDT (4/2) 11:50 AM EDT (4/2)
Length of Visible Light 13h 41m
Length of Day
12h 45m
Waning Gibbous, 56% of the Moon is Illuminated
Apr 2
Waning Gibbous
Apr 3
Last Quarter
Apr 10
New
Apr 18
First Quarter
Apr 25
Full

Hourly Weather History & Observations

Time (EDT) Temp. Windchill Dew Point Humidity Pressure Visibility Wind Dir Wind Speed Gust Speed Precip Events Conditions
12:51 AM 28.0 °F 18.1 °F 17.1 °F 63% 30.06 in 9.0 mi NW 11.5 mph 18.4 mph 0.00 in Snow Light Snow
1:51 AM 27.0 °F 17.3 °F 19.0 °F 72% 30.06 in 9.0 mi NW 10.4 mph - 0.00 in Snow Light Snow
2:51 AM 25.0 °F 16.3 °F 19.0 °F 78% 30.06 in 9.0 mi NNW 8.1 mph - 0.00 in Snow Light Snow
3:51 AM 25.0 °F 19.3 °F 19.0 °F 78% 30.06 in 4.0 mi WNW 4.6 mph - 0.00 in Snow Light Snow
4:51 AM 25.0 °F 18.1 °F 18.0 °F 75% 30.07 in 9.0 mi WNW 5.8 mph - N/A Snow Light Snow
5:51 AM 25.0 °F 14.2 °F 17.1 °F 72% 30.09 in 9.0 mi WNW 11.5 mph - 0.00 in Snow Light Snow
6:51 AM 23.0 °F 17.0 °F 16.0 °F 74% 30.11 in 10.0 mi West 4.6 mph - 0.00 in   Scattered Clouds
7:51 AM 24.8 °F 17.9 °F 17.6 °F 74% 30.14 in 10.0 mi West 5.8 mph - N/A   Scattered Clouds
8:51 AM 28.9 °F 20.4 °F 14.0 °F 54% 30.15 in 10.0 mi West 9.2 mph - N/A   Scattered Clouds
9:51 AM 28.9 °F 19.2 °F 15.1 °F 56% 30.15 in 10.0 mi WSW 11.5 mph - N/A   Overcast
10:19 AM 28.4 °F 18.0 °F 19.4 °F 69% 30.12 in 2.5 mi West 12.7 mph 21.9 mph 0.00 in Snow Light Snow
10:31 AM 28.4 °F 19.1 °F 19.4 °F 69% 30.12 in 0.8 mi West 10.4 mph - 0.00 in Snow Light Snow
10:38 AM 28.4 °F 18.5 °F 21.2 °F 74% 30.12 in 3.0 mi West 11.5 mph - 0.00 in Snow Light Snow
10:51 AM 30.0 °F 21.7 °F 19.9 °F 66% 30.17 in 10.0 mi WSW 9.2 mph 21.9 mph N/A Snow Light Snow
11:18 AM 30.2 °F 18.1 °F 19.4 °F 64% 30.13 in 1.0 mi West 18.4 mph 25.3 mph 0.00 in Snow Light Snow
11:28 AM 30.2 °F 21.3 °F 23.0 °F 75% 30.13 in 8.0 mi West 10.4 mph 21.9 mph 0.00 in Snow Light Snow
11:51 AM 32.0 °F 21.6 °F 19.0 °F 59% 30.17 in 8.0 mi West 15.0 mph 21.9 mph 0.00 in Snow Light Snow
12:37 PM 30.2 °F 19.3 °F 19.4 °F 64% 30.13 in 2.0 mi West 15.0 mph 23.0 mph 0.00 in Snow Light Snow
12:51 PM 33.1 °F 23.0 °F 21.9 °F 64% 30.17 in 2.0 mi West 15.0 mph 19.6 mph 0.00 in Snow Light Snow
12:57 PM 33.8 °F 24.3 °F 19.4 °F 56% 30.13 in 9.0 mi West 13.8 mph 20.7 mph 0.00 in Snow Light Snow
1:51 PM 35.1 °F 26.4 °F 17.1 °F 48% 30.16 in 9.0 mi West 12.7 mph - N/A   Mostly Cloudy
2:51 PM 37.0 °F 28.1 °F 14.0 °F 39% 30.16 in 10.0 mi WSW 15.0 mph 21.9 mph N/A   Mostly Cloudy
3:51 PM 35.1 °F 27.4 °F 9.0 °F 34% 30.15 in 10.0 mi West 10.4 mph 26.5 mph N/A   Mostly Cloudy
4:51 PM 37.0 °F 27.4 °F 9.0 °F 31% 30.16 in 10.0 mi WNW 17.3 mph 25.3 mph N/A   Scattered Clouds
5:51 PM 35.1 °F 25.2 °F 9.0 °F 34% 30.17 in 10.0 mi NW 16.1 mph 24.2 mph N/A   Mostly Cloudy
6:51 PM 36.0 °F 28.5 °F 10.0 °F 34% 30.17 in 10.0 mi WNW 10.4 mph 16.1 mph N/A   Mostly Cloudy
7:51 PM 34.0 °F 26.6 °F 10.9 °F 38% 30.18 in 10.0 mi WNW 9.2 mph - N/A   Mostly Cloudy
8:51 PM 32.0 °F 28.7 °F 10.9 °F 42% 30.18 in 10.0 mi West 3.5 mph - N/A   Scattered Clouds
9:51 PM 30.9 °F 27.5 °F 14.0 °F 50% 30.19 in 10.0 mi WSW 3.5 mph - N/A   Mostly Cloudy
10:51 PM 30.0 °F 25.2 °F 14.0 °F 51% 30.19 in 10.0 mi WSW 4.6 mph - N/A   Overcast
11:51 PM 30.0 °F 25.2 °F 12.9 °F 49% 30.19 in 10.0 mi WSW 4.6 mph - N/A   Partly Cloudy